{"data":{"norad_id":83903,"intl_designator":"","name":"UNKNOWN","alt_names":[],"object_type":"UNKNOWN","status":"UNKNOWN","operator":null,"country":null,"launch_date":null,"launch_site_code":null,"launch_vehicle":null,"mission":null,"orbit_class":"UNKNOWN","rcs_meters":null,"size_class":null,"mass_kg":null,"dimensions":null,"purposes":[],"wikipedia_slug":null,"has_3d_model":false,"image_url":null,"decayed_at":null,"tle_current":{"epoch":"2026-05-23T18:13:48.234720Z","epoch_age_seconds":176150,"freshness":"STALE","line1":"1 83903U          26143.75958605 -.00000377  00000+0  00000+0 0  9990","line2":"2 83903   5.7859 289.2519 0122435 255.4812 117.9027  0.99117679 45273","mean_motion":0.99117679,"eccentricity":0.0122435,"inclination_deg":5.7859,"raan_deg":289.2519,"arg_perigee_deg":255.4812,"mean_anomaly_deg":117.9027,"bstar":0,"rev_number":4527,"period_min":1452.8185229196,"perigee_km":35593.024544613,"apogee_km":36633.511580378,"semimajor_km":42491.405062495,"source":"CELESTRAK","updated_at":"2026-05-25T13:38:11.424300Z"}}}